SL-16 R/B DEB, 49050

Orbit data source: Space-Track

SL-16 R/B DEB, 49050 is space debris in LEO originally from a launch on Fri, 25 Dec 1992 UTC launched from the Tyuratam Missile And Space Complex (TTMTR). Debris objects in space refer to the collection of defunct objects orbiting the Earth. Examples of debris include non-operational satellites, rocket bodies, and fragments generated from explosions, collisions, or faulty payload assembly.

Loading next visibility...
Identifier
49050, 1992-093LX
Orbit
LEO
Country
Flag of CISCIS
Related business
Manufacturer
Unknown
Mission
Spacecraft
Bus & Motor
Unknown
Mass
Unknown
Launch date (UTC)
1992-12-25 (33 years ago)
Launch vehicle
Unknown
Launch site
Tyuratam Missile And Space Complex (TTMTR)
Object type
Payload
Rocket body
Debris
Shape & HBR
Unknown shape, 0.1 m
Radar Cross Section
RCS unknown

Expand to show TLE details & history
Last TLE update: 1 day ago

TLE from 1 day ago
0 SL-16 R/B DEB
1 49050U 92093LX  26132.37026870  .00008290  00000-0  36129-2 0  9990
2 49050  71.0131 227.1362 0008442 176.8220 183.2962 14.24167493 28114
Epoch: 2026-05-12T08:53Z
TLE epoch observation values (Epoch: 2026-05-12T08:53:11.215Z)
Latitude
-0.0001°
Longitude
-136.30618°
Altitude
819.765 km
Speed
7.44 km/s
True Right ascension
15h 08m 32s
True Declination
0° 00' 00"
Sunlit
Object was in full shadow at epoch
Visualization orbit readout
Latitude
Unknown
Longitude
Unknown
Altitude
Unknown
Speed
Unknown
Apparent Right ascension
Unknown
Apparent Declination
Unknown
Sunlit
N/A
Visualization observer readout
Local Sidereal Time
18:39:28
Azimuth
Unknown
Elevation
Unknown
Doppler factor
Unknown
Orbital elements
Apogee altitude
815.275 km
Perigee altitude
803.14 km
Semi-major axis
7,187.345 km
Eccentricity
0.00084
Inclination
71.0131°
RAAN
227.1362°
Arg. of periapsis
176.822°
True anomaly
183.29064°
Mean anomaly
183.2962°
Eccentric anomaly
183.29342°
Mean motion
3.56197 °/min
Orbital period
101.07 mins
BSTAR
0.0036129
Loading maneuver chart data...
Computing Atmospheric mass density...
Loading historical data...
Loading historical data...
Loading historical data...
Loading historical data...
Loading historical data...
Loading historical data...
Loading historical data...

Documentation

Showing up to 5 results
|